Time,TemperatureF,DewpointF,PressureIn,WindDirection,WindDirectionDegrees,WindSpeedMPH,WindSpeedGustMPH,Humidity,HourlyPrecipIn,Conditions,Clouds,dailyrainin,SolarRadiationWatts/m^2,SoftwareType,DateUTC
2013-01-17 00:02:00,27.0,21.0,-100.00,West,276,2.0,3.0,79,0.00,,,0.00,0.000000,,2013-01-17 06:02:00,
2013-01-17 00:33:00,27.0,21.0,-100.00,West,276,2.0,3.0,79,0.00,,,0.00,0.000000,,2013-01-17 06:33:00,
2013-01-17 00:42:00,27.0,21.0,-100.00,West,276,2.0,3.0,79,0.00,,,0.00,0.000000,,2013-01-17 06:42:00,
2013-01-17 00:52:00,27.0,21.0,-100.00,West,276,2.0,3.0,79,0.00,,,0.00,0.000000,,2013-01-17 06:52:00,
2013-01-17 01:02:00,27.0,20.0,-100.00,West,279,2.0,3.0,76,0.00,,,0.00,0.000000,,2013-01-17 07:02:00,
2013-01-17 01:33:00,27.0,20.0,-100.00,West,279,2.0,3.0,76,0.00,,,0.00,0.000000,,2013-01-17 07:33:00,
2013-01-17 01:43:00,27.0,20.0,-100.00,West,279,2.0,3.0,76,0.00,,,0.00,0.000000,,2013-01-17 07:43:00,
2013-01-17 01:52:00,27.0,20.0,-100.00,West,279,2.0,3.0,76,0.00,,,0.00,0.000000,,2013-01-17 07:52:00,
2013-01-17 02:02:00,29.0,21.0,-100.00,WSW,252,2.0,3.0,72,0.00,,,0.00,0.000000,,2013-01-17 08:02:00,
2013-01-17 02:22:00,29.0,21.0,-100.00,WSW,252,2.0,3.0,72,0.00,,,0.00,0.000000,,2013-01-17 08:22:00,
2013-01-17 02:32:00,29.0,21.0,-100.00,WSW,252,2.0,3.0,72,0.00,,,0.00,0.000000,,2013-01-17 08:32:00,
2013-01-17 02:43:00,29.0,21.0,-100.00,WSW,252,2.0,3.0,72,0.00,,,0.00,0.000000,,2013-01-17 08:43:00,
2013-01-17 02:53:00,29.0,21.0,-100.00,WSW,252,2.0,3.0,72,0.00,,,0.00,0.000000,,2013-01-17 08:53:00,
2013-01-17 03:02:00,28.0,23.0,-100.00,West,263,2.0,4.0,81,0.00,,,0.00,0.000000,,2013-01-17 09:02:00,
2013-01-17 03:33:00,28.0,23.0,-100.00,West,263,2.0,4.0,81,0.00,,,0.00,0.000000,,2013-01-17 09:33:00,
2013-01-17 03:43:00,28.0,23.0,-100.00,West,263,2.0,4.0,81,0.00,,,0.00,0.000000,,2013-01-17 09:43:00,
2013-01-17 03:52:00,28.0,23.0,-100.00,West,263,2.0,4.0,81,0.00,,,0.00,0.000000,,2013-01-17 09:52:00,
2013-01-17 04:02:00,28.0,21.0,-100.00,West,275,4.0,5.0,74,0.00,,,0.00,0.000000,,2013-01-17 10:02:00,
2013-01-17 04:33:00,28.0,21.0,-100.00,West,275,4.0,5.0,74,0.00,,,0.00,0.000000,,2013-01-17 10:33:00,
2013-01-17 04:43:00,28.0,21.0,-100.00,West,275,4.0,5.0,74,0.00,,,0.00,0.000000,,2013-01-17 10:43:00,
2013-01-17 04:53:00,28.0,21.0,-100.00,West,275,4.0,5.0,74,0.00,,,0.00,0.000000,,2013-01-17 10:53:00,
2013-01-17 05:02:00,30.0,21.0,-100.00,WSW,256,3.0,6.0,70,0.00,,,0.00,0.000000,,2013-01-17 11:02:00,
2013-01-17 05:23:00,30.0,21.0,-100.00,WSW,256,3.0,6.0,70,0.00,,,0.00,0.000000,,2013-01-17 11:23:00,
2013-01-17 05:33:00,30.0,21.0,-100.00,WSW,256,3.0,6.0,70,0.00,,,0.00,0.000000,,2013-01-17 11:33:00,
2013-01-17 05:43:00,30.0,21.0,-100.00,WSW,256,3.0,6.0,70,0.00,,,0.00,0.000000,,2013-01-17 11:43:00,
2013-01-17 05:53:00,30.0,21.0,-100.00,WSW,256,3.0,6.0,70,0.00,,,0.00,0.000000,,2013-01-17 11:53:00,
2013-01-17 06:02:00,28.0,21.0,-100.00,SW,236,3.0,4.0,74,0.00,,,0.00,0.000000,,2013-01-17 12:02:00,
2013-01-17 06:23:00,28.0,21.0,-100.00,SW,236,3.0,4.0,74,0.00,,,0.00,0.000000,,2013-01-17 12:23:00,
2013-01-17 06:33:00,28.0,21.0,-100.00,SW,236,3.0,4.0,74,0.00,,,0.00,0.000000,,2013-01-17 12:33:00,
2013-01-17 06:43:00,28.0,21.0,-100.00,SW,236,3.0,4.0,74,0.00,,,0.00,0.000000,,2013-01-17 12:43:00,
2013-01-17 06:53:00,28.0,21.0,-100.00,SW,236,3.0,4.0,74,0.00,,,0.00,0.000000,,2013-01-17 12:53:00,
2013-01-17 07:02:00,27.0,21.0,-100.00,WSW,239,2.0,4.0,78,0.00,,,0.00,0.000000,,2013-01-17 13:02:00,
2013-01-17 07:33:00,27.0,21.0,-100.00,WSW,239,2.0,4.0,78,0.00,,,0.00,0.000000,,2013-01-17 13:33:00,
2013-01-17 07:43:00,27.0,21.0,-100.00,WSW,239,2.0,4.0,78,0.00,,,0.00,0.000000,,2013-01-17 13:43:00,
2013-01-17 07:53:00,27.0,21.0,-100.00,WSW,239,2.0,4.0,78,0.00,,,0.00,0.000000,,2013-01-17 13:53:00,
2013-01-17 08:02:00,27.0,22.0,-100.00,West,280,2.0,4.0,81,0.00,,,0.00,11.000000,,2013-01-17 14:02:00,
2013-01-17 08:33:00,27.0,22.0,-100.00,West,280,2.0,4.0,81,0.00,,,0.00,11.000000,,2013-01-17 14:33:00,
2013-01-17 08:43:00,27.0,22.0,-100.00,West,280,2.0,4.0,81,0.00,,,0.00,11.000000,,2013-01-17 14:43:00,
2013-01-17 08:53:00,27.0,22.0,-100.00,West,280,2.0,4.0,81,0.00,,,0.00,11.000000,,2013-01-17 14:53:00,
2013-01-17 09:02:00,42.0,25.0,-100.00,WNW,297,4.0,9.0,51,0.00,,,0.00,179.000000,,2013-01-17 15:02:00,
2013-01-17 09:33:00,42.0,25.0,-100.00,WNW,297,4.0,9.0,51,0.00,,,0.00,179.000000,,2013-01-17 15:33:00,
2013-01-17 09:43:00,42.0,25.0,-100.00,WNW,297,4.0,9.0,51,0.00,,,0.00,179.000000,,2013-01-17 15:43:00,
2013-01-17 09:53:00,42.0,25.0,-100.00,WNW,297,4.0,9.0,51,0.00,,,0.00,179.000000,,2013-01-17 15:53:00,
2013-01-17 10:02:00,50.0,29.0,-100.00,NW,308,5.0,10.0,44,0.00,,,0.00,393.000000,,2013-01-17 16:02:00,
2013-01-17 10:33:00,50.0,29.0,-100.00,NW,308,5.0,10.0,44,0.00,,,0.00,393.000000,,2013-01-17 16:33:00,
2013-01-17 10:44:00,50.0,29.0,-100.00,NW,308,5.0,10.0,44,0.00,,,0.00,393.000000,,2013-01-17 16:44:00,
2013-01-17 10:53:00,50.0,29.0,-100.00,NW,308,5.0,10.0,44,0.00,,,0.00,393.000000,,2013-01-17 16:53:00,
2013-01-17 11:02:00,54.0,30.0,-100.00,WNW,303,5.0,10.0,39,0.00,,,0.00,561.000000,,2013-01-17 17:02:00,
2013-01-17 11:33:00,54.0,30.0,-100.00,WNW,303,5.0,10.0,39,0.00,,,0.00,561.000000,,2013-01-17 17:33:00,
2013-01-17 11:43:00,54.0,30.0,-100.00,WNW,303,5.0,10.0,39,0.00,,,0.00,561.000000,,2013-01-17 17:43:00,
2013-01-17 11:53:00,54.0,30.0,-100.00,WNW,303,5.0,10.0,39,0.00,,,0.00,561.000000,,2013-01-17 17:53:00,
2013-01-17 12:02:00,57.0,31.0,-100.00,NW,321,7.0,13.0,37,0.00,,,0.00,667.000000,,2013-01-17 18:02:00,
2013-01-17 12:23:00,57.0,31.0,-100.00,NW,321,7.0,13.0,37,0.00,,,0.00,667.000000,,2013-01-17 18:23:00,
2013-01-17 12:34:00,57.0,31.0,-100.00,NW,321,7.0,13.0,37,0.00,,,0.00,667.000000,,2013-01-17 18:34:00,
2013-01-17 12:44:00,57.0,31.0,-100.00,NW,321,7.0,13.0,37,0.00,,,0.00,667.000000,,2013-01-17 18:44:00,
2013-01-17 12:53:00,57.0,31.0,-100.00,NW,321,7.0,13.0,37,0.00,,,0.00,667.000000,,2013-01-17 18:53:00,
2013-01-17 15:02:00,59.0,29.0,-100.00,North,7,6.0,15.0,32,-99.99,,,0.00,426.000000,,2013-01-17 21:02:00,
2013-01-17 15:34:00,59.0,29.0,-100.00,North,7,6.0,15.0,32,-99.99,,,0.00,426.000000,,2013-01-17 21:34:00,
2013-01-17 15:43:00,59.0,29.0,-100.00,North,7,6.0,15.0,32,-99.99,,,0.00,426.000000,,2013-01-17 21:43:00,
2013-01-17 15:53:00,59.0,29.0,-100.00,North,7,6.0,15.0,32,-99.99,,,0.00,426.000000,,2013-01-17 21:53:00,
2013-01-17 16:02:00,58.0,26.0,-100.00,North,11,7.0,19.0,29,0.00,,,0.00,374.000000,,2013-01-17 22:02:00,
2013-01-17 16:23:00,58.0,26.0,-100.00,North,11,7.0,19.0,29,0.00,,,0.00,374.000000,,2013-01-17 22:23:00,
2013-01-17 16:33:00,58.0,26.0,-100.00,North,11,7.0,19.0,29,0.00,,,0.00,374.000000,,2013-01-17 22:33:00,
2013-01-17 16:43:00,58.0,26.0,-100.00,North,11,7.0,19.0,29,0.00,,,0.00,374.000000,,2013-01-17 22:43:00,
2013-01-17 16:53:00,58.0,26.0,-100.00,North,11,7.0,19.0,29,0.00,,,0.00,374.000000,,2013-01-17 22:53:00,
2013-01-17 17:02:00,56.0,30.0,-100.00,North,6,4.0,11.0,37,0.00,,,0.00,120.000000,,2013-01-17 23:02:00,
2013-01-17 17:33:00,56.0,30.0,-100.00,North,6,4.0,11.0,37,0.00,,,0.00,120.000000,,2013-01-17 23:33:00,
2013-01-17 17:43:00,56.0,30.0,-100.00,North,6,4.0,11.0,37,0.00,,,0.00,120.000000,,2013-01-17 23:43:00,
2013-01-17 17:53:00,56.0,30.0,-100.00,North,6,4.0,11.0,37,0.00,,,0.00,120.000000,,2013-01-17 23:53:00,
2013-01-17 18:02:00,50.0,30.0,-100.00,North,11,3.0,8.0,46,0.00,,,0.00,10.000000,,2013-01-18 00:02:00,
2013-01-17 18:23:00,50.0,30.0,-100.00,North,11,3.0,8.0,46,0.00,,,0.00,10.000000,,2013-01-18 00:23:00,
2013-01-17 18:33:00,50.0,30.0,-100.00,North,11,3.0,8.0,46,0.00,,,0.00,10.000000,,2013-01-18 00:33:00,
2013-01-17 18:43:00,50.0,30.0,-100.00,North,11,3.0,8.0,46,0.00,,,0.00,10.000000,,2013-01-18 00:43:00,
2013-01-17 18:53:00,50.0,30.0,-100.00,North,11,3.0,8.0,46,0.00,,,0.00,10.000000,,2013-01-18 00:53:00,
2013-01-17 19:02:00,46.0,30.0,-100.00,NNW,333,3.0,7.0,54,0.00,,,0.00,0.000000,,2013-01-18 01:02:00,
2013-01-17 19:33:00,46.0,30.0,-100.00,NNW,333,3.0,7.0,54,0.00,,,0.00,0.000000,,2013-01-18 01:33:00,
2013-01-17 19:43:00,46.0,30.0,-100.00,NNW,333,3.0,7.0,54,0.00,,,0.00,0.000000,,2013-01-18 01:43:00,
2013-01-17 19:53:00,46.0,30.0,-100.00,NNW,333,3.0,7.0,54,0.00,,,0.00,0.000000,,2013-01-18 01:53:00,
2013-01-17 20:02:00,43.0,30.0,-100.00,WNW,288,2.0,6.0,60,0.00,,,0.00,0.000000,,2013-01-18 02:02:00,
2013-01-17 20:33:00,43.0,30.0,-100.00,WNW,288,2.0,6.0,60,0.00,,,0.00,0.000000,,2013-01-18 02:33:00,
2013-01-17 20:43:00,43.0,30.0,-100.00,WNW,288,2.0,6.0,60,0.00,,,0.00,0.000000,,2013-01-18 02:43:00,
2013-01-17 20:53:00,43.0,30.0,-100.00,WNW,288,2.0,6.0,60,0.00,,,0.00,0.000000,,2013-01-18 02:53:00,
2013-01-17 21:02:00,41.0,31.0,-100.00,NNW,346,2.0,4.0,67,0.00,,,0.00,0.000000,,2013-01-18 03:02:00,
2013-01-17 21:33:00,41.0,31.0,-100.00,NNW,346,2.0,4.0,67,0.00,,,0.00,0.000000,,2013-01-18 03:33:00,
2013-01-17 21:43:00,41.0,31.0,-100.00,NNW,346,2.0,4.0,67,0.00,,,0.00,0.000000,,2013-01-18 03:43:00,
2013-01-17 21:53:00,41.0,31.0,-100.00,NNW,346,2.0,4.0,67,0.00,,,0.00,0.000000,,2013-01-18 03:53:00,
2013-01-17 22:02:00,38.0,30.0,-100.00,West,278,1.0,4.0,74,0.00,,,0.00,0.000000,,2013-01-18 04:02:00,
2013-01-17 22:33:00,38.0,30.0,-100.00,West,278,1.0,4.0,74,0.00,,,0.00,0.000000,,2013-01-18 04:33:00,
2013-01-17 22:42:00,38.0,30.0,-100.00,West,278,1.0,4.0,74,0.00,,,0.00,0.000000,,2013-01-18 04:42:00,
2013-01-17 22:53:00,38.0,30.0,-100.00,West,278,1.0,4.0,74,0.00,,,0.00,0.000000,,2013-01-18 04:53:00,
2013-01-17 23:02:00,33.0,28.0,-100.00,NNE,27,1.0,3.0,83,0.00,,,0.00,0.000000,,2013-01-18 05:02:00,
2013-01-17 23:22:00,33.0,28.0,-100.00,NNE,27,1.0,3.0,83,0.00,,,0.00,0.000000,,2013-01-18 05:22:00,
2013-01-17 23:33:00,33.0,28.0,-100.00,NNE,27,1.0,3.0,83,0.00,,,0.00,0.000000,,2013-01-18 05:33:00,
2013-01-17 23:43:00,33.0,28.0,-100.00,NNE,27,1.0,3.0,83,0.00,,,0.00,0.000000,,2013-01-18 05:43:00,
2013-01-17 23:53:00,33.0,28.0,-100.00,NNE,27,1.0,3.0,83,0.00,,,0.00,0.000000,,2013-01-18 05:53:00,